| time (UTC) | temp C | wind direction | speed KPH | gust KPH | rain 1hr cm | rain 24hr cm | rain mn cm | humidity % | barometer mb |
| 20260505092945 | 12 | 360 | 4.8 | 4.8 | 0.00 | 0.00 | 0.00 | 56 | 1010.5 |
| 20260505091358 | 12 | 334 | 4.8 | 4.8 | 0.00 | 0.00 | 0.00 | 57 | 1009.8 |
| 20260505085807 | 12 | 19 | 6.4 | 8.0 | 0.00 | 0.00 | 0.00 | 57 | 1009.2 |
| 20260505084218 | 12 | 344 | 4.8 | 8.0 | 0.00 | 0.00 | 0.00 | 58 | 1009.0 |
| 20260505082632 | 12 | 345 | 3.2 | 8.0 | 0.00 | 0.00 | 0.00 | 57 | 1008.8 |
| 20260505081040 | 12 | 338 | 3.2 | 4.8 | 0.00 | 0.00 | 0.00 | 55 | 1009.1 |
| 20260505075451 | 12 | 342 | 3.2 | 4.8 | 0.00 | 0.00 | 0.00 | 57 | 1009.9 |
| 20260505073902 | 12 | 5 | 3.2 | 4.8 | 0.00 | 0.00 | 0.00 | 57 | 1009.2 |
| 20260505072315 | 13 | 344 | 4.8 | 8.0 | 0.00 | 0.00 | 0.00 | 57 | 1010.2 |
| 20260505070724 | 14 | 65 | 4.8 | 8.0 | 0.00 | 0.00 | 0.00 | 49 | 1010.1 |
| 20260505065137 | 15 | 355 | 4.8 | 14.5 | 0.00 | 0.00 | 0.00 | 41 | 1009.5 |
| 20260505063548 | 15 | 24 | 3.2 | 3.2 | 0.00 | 0.00 | 0.00 | 41 | 1008.0 |
| 20260505061957 | 15 | 328 | 4.8 | 8.0 | 0.00 | 0.00 | 0.00 | 42 | 1007.7 |
| 20260505060408 | 16 | 360 | 9.7 | 9.7 | 0.00 | 0.00 | 0.00 | 40 | 1007.5 |
| 20260505054820 | 17 | 355 | 16.1 | 19.3 | 0.00 | 0.00 | 0.00 | 40 | 1007.0 |
| 20260505053231 | 18 | 360 | 16.1 | 16.1 | 0.00 | 0.00 | 0.00 | 39 | 1007.0 |
| 20260505051641 | 19 | 83 | 6.4 | 14.5 | 0.00 | 0.00 | 0.00 | 38 | 1006.5 |
| 20260505041326 | 21 | 46 | 3.2 | 4.8 | 0.00 | 0.00 | 0.00 | 37 | 1005.3 |
| 20260505035737 | 21 | 340 | 4.8 | 8.0 | 0.00 | 0.00 | 0.00 | 41 | 1005.1 |
| 20260505034148 | 21 | 345 | 4.8 | 11.3 | 0.00 | 0.00 | 0.00 | 46 | 1004.9 |
| 20260505032558 | 20 | 344 | 4.8 | 6.4 | 0.00 | 0.00 | 0.00 | 59 | 1004.6 |
| 20260505031010 | 19 | 344 | 1.6 | 6.4 | 0.00 | 0.00 | 0.00 | 68 | 1004.0 |
| 20260505025420 | 19 | 360 | 0.0 | 0.0 | 0.00 | 0.00 | 0.00 | 68 | 1003.4 |
| 20260505023831 | 19 | 360 | 0.0 | 1.6 | 0.00 | 0.00 | 0.00 | 70 | 1003.1 |
| 20260505022243 | 20 | 209 | 3.2 | 3.2 | 0.00 | 0.00 | 0.00 | 69 | 1003.1 |
| 20260505020654 | 20 | 360 | 0.0 | 0.0 | 0.00 | 0.00 | 0.00 | 67 | 1002.7 |
| 20260505015104 | 21 | 360 | 0.0 | 0.0 | 0.00 | 0.00 | 0.00 | 64 | 1002.5 |
| 20260505013515 | 22 | 360 | 0.0 | 0.0 | 0.00 | 0.00 | 0.00 | 62 | 1002.5 |
| 20260505011926 | 23 | 360 | 0.0 | 1.6 | 0.00 | 0.00 | 0.00 | 55 | 1002.1 |
| 20260505004749 | 25 | 360 | 0.0 | 4.8 | 0.00 | 0.00 | 0.00 | 50 | 1001.8 |
| 20260505003159 | 25 | 360 | 0.0 | 1.6 | 0.00 | 0.00 | 0.00 | 47 | 1001.7 |
| 20260505000022 | 26 | 251 | 4.8 | 6.4 | 0.00 | 0.00 | 0.00 | 43 | 1001.7 |
| 20260504234434 | 26 | 252 | 3.2 | 6.4 | 0.00 | 0.00 | 0.00 | 42 | 1001.8 |
| 20260504232844 | 26 | 219 | 3.2 | 6.4 | 0.00 | 0.00 | 0.00 | 43 | 1001.9 |
| 20260504231255 | 27 | 166 | 9.7 | 9.7 | 0.00 | 0.00 | 0.00 | 42 | 1001.9 |
| 20260504225705 | 27 | 248 | 4.8 | 6.4 | 0.00 | 0.00 | 0.00 | 42 | 1001.9 |
| 20260504224116 | 27 | 186 | 9.7 | 11.3 | 0.00 | 0.00 | 0.00 | 40 | 1001.8 |
| 20260504222528 | 27 | 193 | 1.6 | 3.2 | 0.00 | 0.00 | 0.00 | 40 | 1001.8 |
| 20260504220942 | 28 | 177 | 3.2 | 16.1 | 0.00 | 0.00 | 0.00 | 40 | 1001.8 |
| 20260504215349 | 28 | 279 | 3.2 | 8.0 | 0.00 | 0.00 | 0.00 | 37 | 1001.9 |
| 20260504213802 | 28 | 241 | 3.2 | 4.8 | 0.00 | 0.00 | 0.00 | 37 | 1002.1 |
| 20260504210622 | 28 | 240 | 8.0 | 8.0 | 0.00 | 0.00 | 0.00 | 37 | 1002.3 |
| 20260504205033 | 29 | 192 | 4.8 | 14.5 | 0.00 | 0.00 | 0.00 | 36 | 1002.5 |
| 20260504201857 | 28 | 281 | 4.8 | 4.8 | 0.00 | 0.00 | 0.00 | 38 | 1002.8 |
| 20260504200307 | 28 | 187 | 11.3 | 11.3 | 0.00 | 0.00 | 0.00 | 38 | 1002.9 |
| 20260504194717 | 28 | 230 | 9.7 | 22.5 | 0.00 | 0.00 | 0.00 | 38 | 1003.0 |
| 20260504193128 | 28 | 218 | 12.9 | 14.5 | 0.00 | 0.00 | 0.00 | 37 | 1003.0 |
| 20260504191540 | 27 | 360 | 0.0 | 6.4 | 0.00 | 0.00 | 0.00 | 41 | 1002.8 |
| 20260504185950 | 27 | 274 | 1.6 | 8.0 | 0.00 | 0.00 | 0.00 | 40 | 1003.1 |
| 20260504182817 | 26 | 140 | 8.0 | 9.7 | 0.00 | 0.00 | 0.00 | 44 | 1003.2 |
| 20260504181223 | 26 | 211 | 1.6 | 14.5 | 0.00 | 0.00 | 0.00 | 46 | 1003.1 |
| 20260504175634 | 26 | 241 | 8.0 | 16.1 | 0.00 | 0.00 | 0.00 | 44 | 1003.3 |
| 20260504174046 | 26 | 263 | 6.4 | 11.3 | 0.00 | 0.00 | 0.00 | 44 | 1003.4 |
| 20260504172456 | 25 | 276 | 1.6 | 11.3 | 0.00 | 0.00 | 0.00 | 48 | 1003.6 |
| 20260504110524 | 10 | 360 | 0.0 | 0.0 | 0.00 | 0.00 | 0.00 | 91 | 1004.3 |
| 20260504100205 | 10 | 360 | 0.0 | 0.0 | 0.00 | 0.00 | 0.00 | 89 | 1005.5 |